Regional Weather Roundup
Issued by NWS Albany, NY

Home | Current Version | Previous Version | Text Only | Print | Product List | Glossary On
Versions: 1 2 3 4 5 6 7 8 9 10 11 12 13 14 15 16 17 18 19 20 21 22 23 24 25 26 27 28 29 30 31 32 33 34 35 36 37 38 39 40 41 42 43 44 45 46 47 48
000
ASUS41 KALY 200310
RWRALY

NEW YORK STATE HOURLY WEATHER ROUNDUP
NATIONAL WEATHER SERVICE ALBANY NY
1100 PM EDT THU APR 19 2018

NOTE: "FAIR" INDICATES FEW OR NO CLOUDS BELOW 12,000 FEET WITH NO
SIGNIFICANT WEATHER AND/OR NO OBSTRUCTIONS TO VISIBILITY.

NYZ032-033-038>043-046>054-057>066-NYZ062>081-082-084-200400-
EAST


CITY           SKY/WX    TMP DP  RH WIND       PRES   REMARKS
ALBANY         CLOUDY    36  25  64 W13       29.95R WCI  27
GLENS FALLS    CLOUDY    36  23  59 NW6       29.91S WCI  31
POUGHKEEPSIE   MOCLDY    37  24  59 W7        29.96R WCI  32
NEWBURGH       PTCLDY    36  27  69 W12       29.98R WCI  27
MONTGOMERY     FAIR      36  24  62 W10       29.97R WCI  28
WHITE PLAINS   FAIR      37  25  61 W16       29.96R WCI  28
ISLIP          FAIR      39  25  57 NW14G22   29.95R WCI  31
NEW YORK CITY  FAIR      41  25  53 NW16G23   30.00R
CENTRAL PARK   FAIR      39  24  55 W9G20     30.02R WCI  33
$$

NYZ005>009-017-018-044>046-055-056-200400-
CENTRAL


CITY           SKY/WX    TMP DP  RH WIND       PRES   REMARKS
FULTON         FLURRIES  33  24  69 NW16G24   30.08S WCI  23
SYRACUSE       MOCLDY    30  29  96 NW12      30.07S WCI  20
ROME           MOCLDY    31  27  85 W12       30.04R WCI  22
ELMIRA         MOCLDY    33  24  69 W8G20     30.08S WCI  26
BINGHAMTON     LGT SNOW  29  23  78 NW13G18   29.99R WCI  19
MONTICELLO     MIX PCPN  31  24  75 NW13G22   29.96S WCI  21
$$

NYZ026>034-041>043-087-200400-
NORTH


CITY           SKY/WX    TMP DP  RH WIND       PRES   REMARKS
WATERTOWN      CLOUDY    31  27  85 NW9       30.07R WCI  23
FORT DRUM      NOT AVBL
OGDENSBURG     FAIR      33  26  76 NW13      30.03R WCI  24
MASSENA        CLOUDY    34  26  72 NW16G24   30.00R WCI  24
SARANAC LAKE   LGT SNOW  27  24  89 W9        29.88S FOG     WCI  18
PLATTSBURGH    MOCLDY    35  26  69 W9G17     29.90S WCI  28
$$

NYZ001>004-010>016-019>021-085-200400-
WEST


CITY           SKY/WX    TMP DP  RH WIND       PRES   REMARKS
NIAGARA FALLS  CLOUDY    37  22  54 N14       30.18R WCI  28
BUFFALO        FLURRIES  35  23  61 NW16G25   30.17R WCI  25
DUNKIRK        CLOUDY    34  26  72 W12       30.21S WCI  25
JAMESTOWN      FAIR      28  23  81 NW16      30.15S WCI  16
WELLSVILLE     LGT SNOW  29  25  85 NW14G25   30.09R FOG     WCI  18
ROCHESTER      FLURRIES  34  25  69 N16       30.14R WCI  24
PENN YAN       SNOW      30  26  85 NW10      30.10R VSB 1/2 WCI  21
$$

             KEY
       WCI = WIND CHILL INDEX
       VSB = VISIBILITY
       HX  = HEAT INDEX
$$



USA.gov is the U.S. government's official web portal to all federal, state and local government web resources and services.